Time,TemperatureF,DewpointF,PressureIn,WindDirection,WindDirectionDegrees,WindSpeedMPH,WindSpeedGustMPH,Humidity,HourlyPrecipIn,Conditions,Clouds,dailyrainin,SoftwareType,DateUTC
2013-06-11 00:00:00,63.7,51.7,29.93,NW,315,0.0,0.7,65,0.00,,,0.00,WUHU216HW,2013-06-11 07:00:00,
2013-06-11 00:05:00,63.7,51.7,29.93,SW,225,1.1,1.1,65,0.00,,,0.00,WUHU216HW,2013-06-11 07:05:00,
2013-06-11 00:10:00,63.7,52.1,29.93,SW,225,0.0,1.1,66,0.00,,,0.00,WUHU216HW,2013-06-11 07:10:00,
2013-06-11 00:15:00,63.7,52.1,29.93,SW,225,0.0,1.1,66,0.00,,,0.00,WUHU216HW,2013-06-11 07:15:00,
2013-06-11 00:20:00,63.5,51.9,29.93,WNW,293,0.7,0.7,66,0.00,,,0.00,WUHU216HW,2013-06-11 07:20:00,
2013-06-11 00:25:00,63.4,51.8,29.93,West,270,1.1,1.1,66,0.00,,,0.00,WUHU216HW,2013-06-11 07:25:00,
2013-06-11 00:30:00,63.2,51.6,29.93,NW,315,0.7,1.1,66,0.00,,,0.00,WUHU216HW,2013-06-11 07:30:00,
2013-06-11 00:35:00,63.0,51.4,29.93,NW,315,0.2,1.1,66,0.00,,,0.00,WUHU216HW,2013-06-11 07:35:00,
2013-06-11 00:40:00,62.8,51.3,29.93,WNW,293,2.2,2.2,66,0.00,,,0.00,WUHU216HW,2013-06-11 07:40:00,
2013-06-11 00:45:00,62.5,51.3,29.93,West,270,2.2,2.5,67,0.00,,,0.00,WUHU216HW,2013-06-11 07:45:00,
2013-06-11 00:50:00,62.3,51.6,29.94,West,270,2.0,4.0,68,0.00,,,0.00,WUHU216HW,2013-06-11 07:50:00,
2013-06-11 00:55:00,62.1,51.4,29.93,WNW,293,2.5,4.0,68,0.00,,,0.00,WUHU216HW,2013-06-11 07:55:00,
2013-06-11 01:00:00,61.9,51.7,29.94,West,270,4.7,4.7,69,0.00,,,0.00,WUHU216HW,2013-06-11 08:00:00,
2013-06-11 01:05:00,61.6,51.4,29.94,WNW,293,4.3,4.9,69,0.00,,,0.00,WUHU216HW,2013-06-11 08:05:00,
2013-06-11 01:10:00,61.6,51.4,29.94,NW,315,2.7,4.9,69,0.00,,,0.00,WUHU216HW,2013-06-11 08:10:00,
2013-06-11 01:15:00,61.2,51.0,29.93,WNW,293,3.4,3.4,69,0.00,,,0.00,WUHU216HW,2013-06-11 08:15:00,
2013-06-11 01:20:00,61.0,50.9,29.94,North,0,3.4,3.4,69,0.00,,,0.00,WUHU216HW,2013-06-11 08:20:00,
2013-06-11 01:25:00,60.5,50.8,29.94,North,0,4.9,5.8,70,0.00,,,0.00,WUHU216HW,2013-06-11 08:25:00,
2013-06-11 01:30:00,60.1,50.8,29.94,NNW,338,7.8,7.8,71,0.00,,,0.00,WUHU216HW,2013-06-11 08:30:00,
2013-06-11 01:35:00,60.1,50.8,29.94,NW,315,6.3,7.8,71,0.00,,,0.00,WUHU216HW,2013-06-11 08:35:00,
2013-06-11 01:40:00,59.8,50.8,29.94,North,0,4.0,6.3,72,0.00,,,0.00,WUHU216HW,2013-06-11 08:40:00,
2013-06-11 01:45:00,59.8,50.8,29.93,North,0,4.7,6.3,72,0.00,,,0.00,WUHU216HW,2013-06-11 08:45:00,
2013-06-11 01:50:00,59.4,50.8,29.93,WNW,293,1.6,5.6,73,0.00,,,0.00,WUHU216HW,2013-06-11 08:50:00,
2013-06-11 01:55:00,59.4,50.8,29.93,North,0,2.9,5.6,73,0.00,,,0.00,WUHU216HW,2013-06-11 08:55:00,
2013-06-11 02:00:00,59.4,51.1,29.94,NNW,338,2.5,6.9,74,0.00,,,0.00,WUHU216HW,2013-06-11 09:00:00,
2013-06-11 02:05:00,59.6,51.3,29.94,NNE,23,4.7,6.9,74,0.00,,,0.00,WUHU216HW,2013-06-11 09:05:00,
2013-06-11 02:10:00,59.4,51.1,29.93,NW,315,1.3,4.7,74,0.00,,,0.00,WUHU216HW,2013-06-11 09:10:00,
2013-06-11 02:15:00,59.6,51.3,29.93,NE,45,1.6,4.5,74,0.00,,,0.00,WUHU216HW,2013-06-11 09:15:00,
2013-06-11 02:20:00,59.6,51.3,29.93,NE,45,1.1,3.1,74,0.00,,,0.00,WUHU216HW,2013-06-11 09:20:00,
2013-06-11 02:25:00,59.8,51.5,29.93,North,0,0.4,3.1,74,0.00,,,0.00,WUHU216HW,2013-06-11 09:25:00,
2013-06-11 02:30:00,59.8,51.5,29.93,NW,315,3.6,3.6,74,0.00,,,0.00,WUHU216HW,2013-06-11 09:30:00,
2013-06-11 02:35:00,59.8,51.5,29.93,NNE,23,0.0,3.6,74,0.00,,,0.00,WUHU216HW,2013-06-11 09:35:00,
2013-06-11 02:40:00,59.8,51.5,29.93,WNW,293,1.1,1.8,74,0.00,,,0.00,WUHU216HW,2013-06-11 09:40:00,
2013-06-11 02:45:00,59.9,51.7,29.93,West,270,0.7,1.3,74,0.00,,,0.00,WUHU216HW,2013-06-11 09:45:00,
2013-06-11 02:50:00,59.9,51.7,29.93,North,0,0.4,1.3,74,0.00,,,0.00,WUHU216HW,2013-06-11 09:50:00,
2013-06-11 02:55:00,60.1,51.8,29.93,West,270,1.8,1.8,74,0.00,,,0.00,WUHU216HW,2013-06-11 09:55:00,
2013-06-11 03:00:00,60.1,51.8,29.93,West,270,1.8,1.8,74,0.00,,,0.00,WUHU216HW,2013-06-11 10:00:00,
2013-06-11 03:05:00,60.1,51.8,29.93,West,270,0.2,3.8,74,0.00,,,0.00,WUHU216HW,2013-06-11 10:05:00,
2013-06-11 03:10:00,60.1,51.8,29.93,NNE,23,0.0,3.8,74,0.00,,,0.00,WUHU216HW,2013-06-11 10:10:00,
2013-06-11 03:15:00,60.3,52.0,29.93,NW,315,1.6,1.6,74,0.00,,,0.00,WUHU216HW,2013-06-11 10:15:00,
2013-06-11 03:20:00,60.3,52.0,29.93,West,270,1.8,3.4,74,0.00,,,0.00,WUHU216HW,2013-06-11 10:20:00,
2013-06-11 03:25:00,60.3,52.0,29.92,West,270,4.7,4.7,74,0.00,,,0.00,WUHU216HW,2013-06-11 10:25:00,
2013-06-11 03:30:00,60.1,51.8,29.92,WNW,293,1.8,5.1,74,0.00,,,0.00,WUHU216HW,2013-06-11 10:30:00,
2013-06-11 03:35:00,60.1,51.8,29.92,WNW,293,1.8,5.1,74,0.00,,,0.00,WUHU216HW,2013-06-11 10:35:00,
2013-06-11 03:40:00,60.1,52.2,29.92,West,270,2.2,2.2,75,0.00,,,0.00,WUHU216HW,2013-06-11 10:40:00,
2013-06-11 03:45:00,60.1,52.2,29.92,WNW,293,4.0,4.0,75,0.00,,,0.00,WUHU216HW,2013-06-11 10:45:00,
2013-06-11 03:50:00,60.1,52.2,29.92,NW,315,1.6,4.0,75,0.00,,,0.00,WUHU216HW,2013-06-11 10:50:00,
2013-06-11 03:55:00,60.1,52.2,29.92,NNW,338,1.6,2.7,75,0.00,,,0.00,WUHU216HW,2013-06-11 10:55:00,
2013-06-11 04:00:00,60.1,52.2,29.91,West,270,2.2,3.4,75,0.00,,,0.00,WUHU216HW,2013-06-11 11:00:00,
2013-06-11 04:05:00,59.9,52.0,29.91,WNW,293,2.2,3.4,75,0.00,,,0.00,WUHU216HW,2013-06-11 11:05:00,
2013-06-11 04:10:00,60.1,52.2,29.91,West,270,1.8,2.9,75,0.00,,,0.00,WUHU216HW,2013-06-11 11:10:00,
2013-06-11 04:15:00,60.1,52.2,29.92,NW,315,1.8,2.9,75,0.00,,,0.00,WUHU216HW,2013-06-11 11:15:00,
2013-06-11 04:20:00,60.1,52.2,29.92,West,270,2.2,3.1,75,0.00,,,0.00,WUHU216HW,2013-06-11 11:20:00,
2013-06-11 04:25:00,60.1,52.2,29.92,WNW,293,2.0,3.4,75,0.00,,,0.00,WUHU216HW,2013-06-11 11:25:00,
2013-06-11 04:30:00,60.1,52.2,29.92,West,270,1.8,3.4,75,0.00,,,0.00,WUHU216HW,2013-06-11 11:30:00,
2013-06-11 04:35:00,60.1,52.2,29.92,West,270,2.2,3.4,75,0.00,,,0.00,WUHU216HW,2013-06-11 11:35:00,
2013-06-11 04:40:00,60.1,52.2,29.92,West,270,3.4,3.4,75,0.00,,,0.00,WUHU216HW,2013-06-11 11:40:00,
2013-06-11 04:45:00,60.1,52.2,29.92,West,270,3.6,3.8,75,0.00,,,0.00,WUHU216HW,2013-06-11 11:45:00,
2013-06-11 04:50:00,60.1,52.2,29.92,WNW,293,2.9,3.8,75,0.00,,,0.00,WUHU216HW,2013-06-11 11:50:00,
2013-06-11 04:55:00,60.1,52.2,29.91,NW,315,0.9,3.4,75,0.00,,,0.00,WUHU216HW,2013-06-11 11:55:00,
2013-06-11 05:00:00,60.1,52.2,29.91,West,270,1.3,3.1,75,0.00,,,0.00,WUHU216HW,2013-06-11 12:00:00,
2013-06-11 05:05:00,60.1,52.2,29.91,West,270,1.1,1.6,75,0.00,,,0.00,WUHU216HW,2013-06-11 12:05:00,
2013-06-11 05:10:00,60.1,52.2,29.91,WNW,293,1.1,1.6,75,0.00,,,0.00,WUHU216HW,2013-06-11 12:10:00,
2013-06-11 05:15:00,60.1,52.2,29.91,WNW,293,0.0,1.8,75,0.00,,,0.00,WUHU216HW,2013-06-11 12:15:00,
2013-06-11 05:20:00,60.1,52.2,29.91,NW,315,1.1,1.8,75,0.00,,,0.00,WUHU216HW,2013-06-11 12:20:00,
2013-06-11 05:25:00,60.1,52.2,29.92,WNW,293,2.2,2.2,75,0.00,,,0.00,WUHU216HW,2013-06-11 12:25:00,
2013-06-11 05:30:00,60.3,52.4,29.92,West,270,1.8,2.5,75,0.00,,,0.00,WUHU216HW,2013-06-11 12:30:00,
2013-06-11 05:35:00,60.3,52.4,29.93,NW,315,3.4,4.3,75,0.00,,,0.00,WUHU216HW,2013-06-11 12:35:00,
2013-06-11 05:40:00,60.1,52.2,29.92,West,270,1.1,4.3,75,0.00,,,0.00,WUHU216HW,2013-06-11 12:40:00,
2013-06-11 05:45:00,60.1,52.2,29.92,West,270,0.0,1.8,75,0.00,,,0.00,WUHU216HW,2013-06-11 12:45:00,
2013-06-11 05:50:00,60.3,52.4,29.93,West,270,0.9,1.6,75,0.00,,,0.00,WUHU216HW,2013-06-11 12:50:00,
2013-06-11 05:55:00,60.3,52.4,29.93,West,270,0.2,0.9,75,0.00,,,0.00,WUHU216HW,2013-06-11 12:55:00,
2013-06-11 06:00:00,60.3,52.4,29.93,West,270,1.8,1.8,75,0.00,,,0.00,WUHU216HW,2013-06-11 13:00:00,
2013-06-11 06:05:00,60.5,52.6,29.92,West,270,0.2,1.8,75,0.00,,,0.00,WUHU216HW,2013-06-11 13:05:00,
2013-06-11 06:10:00,60.5,52.6,29.92,WSW,248,0.0,1.1,75,0.00,,,0.00,WUHU216HW,2013-06-11 13:10:00,
2013-06-11 06:15:00,60.5,52.6,29.93,WSW,248,0.4,1.6,75,0.00,,,0.00,WUHU216HW,2013-06-11 13:15:00,
2013-06-11 06:20:00,60.7,52.4,29.93,SSW,203,1.3,1.6,74,0.00,,,0.00,WUHU216HW,2013-06-11 13:20:00,
2013-06-11 06:25:00,60.7,52.4,29.93,WSW,248,1.8,1.8,74,0.00,,,0.00,WUHU216HW,2013-06-11 13:25:00,
2013-06-11 06:31:00,60.7,52.4,29.93,West,270,1.8,1.8,74,0.00,,,0.00,WUHU216HW,2013-06-11 13:31:00,
2013-06-11 06:36:00,60.7,52.4,29.93,WNW,293,2.0,2.7,74,0.00,,,0.00,WUHU216HW,2013-06-11 13:36:00,
2013-06-11 06:41:00,60.7,52.4,29.93,West,270,0.9,2.7,74,0.00,,,0.00,WUHU216HW,2013-06-11 13:41:00,
2013-06-11 06:46:00,60.7,52.4,29.94,WSW,248,1.8,2.5,74,0.00,,,0.00,WUHU216HW,2013-06-11 13:46:00,
2013-06-11 06:51:00,60.8,52.6,29.94,North,0,0.4,1.8,74,0.00,,,0.00,WUHU216HW,2013-06-11 13:51:00,
2013-06-11 06:56:00,60.8,52.6,29.94,West,270,1.8,1.8,74,0.00,,,0.00,WUHU216HW,2013-06-11 13:56:00,
2013-06-11 07:01:00,60.8,52.9,29.94,NNE,23,1.8,1.8,75,0.00,,,0.00,WUHU216HW,2013-06-11 14:01:00,
2013-06-11 07:06:00,60.8,52.9,29.94,ENE,68,1.3,1.8,75,0.00,,,0.00,WUHU216HW,2013-06-11 14:06:00,
2013-06-11 07:11:00,60.8,52.9,29.94,South,180,0.9,1.3,75,0.00,,,0.00,WUHU216HW,2013-06-11 14:11:00,
2013-06-11 07:16:00,60.8,52.9,29.94,SW,225,0.0,0.9,75,0.00,,,0.00,WUHU216HW,2013-06-11 14:16:00,
2013-06-11 07:21:00,61.0,53.1,29.94,SE,135,0.9,1.6,75,0.00,,,0.00,WUHU216HW,2013-06-11 14:21:00,
2013-06-11 07:26:00,61.2,53.3,29.94,SE,135,0.7,1.8,75,0.00,,,0.00,WUHU216HW,2013-06-11 14:26:00,
2013-06-11 07:31:00,61.2,53.3,29.94,SE,135,1.8,2.0,75,0.00,,,0.00,WUHU216HW,2013-06-11 14:31:00,
2013-06-11 07:36:00,61.4,53.0,29.94,SE,135,0.0,2.0,74,0.00,,,0.00,WUHU216HW,2013-06-11 14:36:00,
2013-06-11 07:41:00,61.6,53.2,29.94,SE,135,0.4,1.8,74,0.00,,,0.00,WUHU216HW,2013-06-11 14:41:00,
2013-06-11 07:46:00,61.6,53.2,29.95,SE,135,1.1,2.2,74,0.00,,,0.00,WUHU216HW,2013-06-11 14:46:00,
2013-06-11 07:51:00,61.7,53.4,29.95,SE,135,0.9,2.2,74,0.00,,,0.00,WUHU216HW,2013-06-11 14:51:00,
2013-06-11 07:56:00,61.7,53.4,29.95,SE,135,1.8,2.0,74,0.00,,,0.00,WUHU216HW,2013-06-11 14:56:00,
2013-06-11 08:01:00,61.9,53.6,29.95,SE,135,1.6,2.2,74,0.00,,,0.00,WUHU216HW,2013-06-11 15:01:00,
2013-06-11 08:06:00,62.1,53.7,29.95,SSE,158,0.0,2.2,74,0.00,,,0.00,WUHU216HW,2013-06-11 15:06:00,
2013-06-11 08:11:00,62.3,53.8,29.95,SSE,158,2.5,2.9,74,0.00,,,0.00,WUHU216HW,2013-06-11 15:11:00,
2013-06-11 08:16:00,62.3,53.8,29.95,SE,135,0.9,2.9,74,0.00,,,0.00,WUHU216HW,2013-06-11 15:16:00,
2013-06-11 08:21:00,62.6,53.8,29.95,SE,135,1.8,2.7,73,0.00,,,0.00,WUHU216HW,2013-06-11 15:21:00,
2013-06-11 08:26:00,62.6,53.8,29.95,North,0,0.0,1.8,73,0.00,,,0.00,WUHU216HW,2013-06-11 15:26:00,
2013-06-11 08:31:00,62.6,53.8,29.95,WSW,248,2.5,2.5,73,0.00,,,0.00,WUHU216HW,2013-06-11 15:31:00,
2013-06-11 08:36:00,62.8,54.4,29.95,West,270,1.3,2.7,74,0.00,,,0.00,WUHU216HW,2013-06-11 15:36:00,
2013-06-11 08:41:00,63.0,54.5,29.96,SE,135,0.0,2.7,74,0.00,,,0.00,WUHU216HW,2013-06-11 15:41:00,
2013-06-11 08:46:00,63.0,54.5,29.95,SSE,158,0.0,2.5,74,0.00,,,0.00,WUHU216HW,2013-06-11 15:46:00,
2013-06-11 08:51:00,63.0,54.5,29.96,SW,225,0.0,3.4,74,0.00,,,0.00,WUHU216HW,2013-06-11 15:51:00,
2013-06-11 08:56:00,63.2,54.4,29.96,West,270,1.8,3.4,73,0.00,,,0.00,WUHU216HW,2013-06-11 15:56:00,
2013-06-11 09:01:00,63.4,54.5,29.96,WSW,248,0.0,2.9,73,0.00,,,0.00,WUHU216HW,2013-06-11 16:01:00,
2013-06-11 09:06:00,63.4,54.5,29.96,West,270,1.1,2.9,73,0.00,,,0.00,WUHU216HW,2013-06-11 16:06:00,
2013-06-11 09:11:00,63.7,54.9,29.96,WSW,248,3.4,3.4,73,0.00,,,0.00,WUHU216HW,2013-06-11 16:11:00,
2013-06-11 09:16:00,63.9,55.1,29.96,SW,225,2.0,3.4,73,0.00,,,0.00,WUHU216HW,2013-06-11 16:16:00,
2013-06-11 09:21:00,64.1,54.9,29.96,WSW,248,2.7,5.8,72,0.00,,,0.00,WUHU216HW,2013-06-11 16:21:00,
2013-06-11 09:26:00,64.1,54.9,29.96,WNW,293,4.0,5.8,72,0.00,,,0.00,WUHU216HW,2013-06-11 16:26:00,
2013-06-11 09:31:00,63.9,54.7,29.96,WNW,293,5.4,6.5,72,0.00,,,0.00,WUHU216HW,2013-06-11 16:31:00,
2013-06-11 09:36:00,63.7,54.5,29.97,West,270,7.6,7.6,72,0.00,,,0.00,WUHU216HW,2013-06-11 16:36:00,
2013-06-11 09:41:00,63.7,54.9,29.96,WSW,248,3.4,7.6,73,0.00,,,0.00,WUHU216HW,2013-06-11 16:41:00,
2013-06-11 09:46:00,63.7,54.9,29.97,NNW,338,7.4,8.5,73,0.00,,,0.00,WUHU216HW,2013-06-11 16:46:00,
2013-06-11 09:51:00,63.4,54.5,29.97,NW,315,5.1,8.5,73,0.00,,,0.00,WUHU216HW,2013-06-11 16:51:00,
2013-06-11 09:56:00,63.4,54.5,29.97,West,270,4.7,9.4,73,0.00,,,0.00,WUHU216HW,2013-06-11 16:56:00,
2013-06-11 10:01:00,63.4,54.5,29.97,NW,315,6.3,9.4,73,0.00,,,0.00,WUHU216HW,2013-06-11 17:01:00,
2013-06-11 10:06:00,63.4,54.9,29.97,West,270,4.0,7.2,74,0.00,,,0.00,WUHU216HW,2013-06-11 17:06:00,
2013-06-11 10:11:00,63.7,54.9,29.97,West,270,6.9,7.8,73,0.00,,,0.00,WUHU216HW,2013-06-11 17:11:00,
2013-06-11 10:16:00,63.7,54.9,29.97,WNW,293,6.9,7.8,73,0.00,,,0.00,WUHU216HW,2013-06-11 17:16:00,
2013-06-11 10:21:00,63.7,54.9,29.97,West,270,6.5,6.9,73,0.00,,,0.00,WUHU216HW,2013-06-11 17:21:00,
2013-06-11 10:26:00,64.1,55.3,29.97,West,270,4.7,7.8,73,0.00,,,0.00,WUHU216HW,2013-06-11 17:26:00,
2013-06-11 10:31:00,64.3,55.4,29.97,WSW,248,4.0,7.8,73,0.00,,,0.00,WUHU216HW,2013-06-11 17:31:00,
2013-06-11 10:36:00,64.8,55.6,29.97,West,270,4.0,6.9,72,0.00,,,0.00,WUHU216HW,2013-06-11 17:36:00,
2013-06-11 10:41:00,65.0,55.4,29.97,West,270,8.7,8.7,71,0.00,,,0.00,WUHU216HW,2013-06-11 17:41:00,
2013-06-11 10:46:00,65.2,55.2,29.97,WSW,248,1.8,8.7,70,0.00,,,0.00,WUHU216HW,2013-06-11 17:46:00,
2013-06-11 10:51:00,65.3,55.4,29.97,West,270,8.5,8.7,70,0.00,,,0.00,WUHU216HW,2013-06-11 17:51:00,
2013-06-11 10:56:00,65.7,55.7,29.97,NW,315,4.3,8.7,70,0.00,,,0.00,WUHU216HW,2013-06-11 17:56:00,
2013-06-11 11:01:00,65.9,55.8,29.97,West,270,6.9,7.8,70,0.00,,,0.00,WUHU216HW,2013-06-11 18:01:00,
2013-06-11 11:06:00,66.1,55.6,29.97,WNW,293,6.0,6.9,69,0.00,,,0.00,WUHU216HW,2013-06-11 18:06:00,
2013-06-11 11:11:00,66.1,55.6,29.97,WNW,293,4.3,6.0,69,0.00,,,0.00,WUHU216HW,2013-06-11 18:11:00,
2013-06-11 11:16:00,66.6,55.7,29.98,WNW,293,5.8,8.3,68,0.00,,,0.00,WUHU216HW,2013-06-11 18:16:00,
2013-06-11 11:21:00,66.6,55.7,29.98,WNW,293,6.9,8.3,68,0.00,,,0.00,WUHU216HW,2013-06-11 18:21:00,
2013-06-11 11:26:00,66.8,55.4,29.97,WNW,293,3.1,6.9,67,0.00,,,0.00,WUHU216HW,2013-06-11 18:26:00,
2013-06-11 11:31:00,67.3,56.0,29.97,WSW,248,4.9,6.9,67,0.00,,,0.00,WUHU216HW,2013-06-11 18:31:00,
2013-06-11 11:36:00,67.7,56.4,29.98,NNW,338,6.3,6.5,67,0.00,,,0.00,WUHU216HW,2013-06-11 18:36:00,
2013-06-11 11:41:00,67.7,55.4,29.98,WSW,248,2.2,6.3,65,0.00,,,0.00,WUHU216HW,2013-06-11 18:41:00,
2013-06-11 11:46:00,68.2,56.0,29.97,WSW,248,4.9,6.3,65,0.00,,,0.00,WUHU216HW,2013-06-11 18:46:00,
2013-06-11 11:51:00,68.2,56.0,29.97,WSW,248,2.0,4.9,65,0.00,,,0.00,WUHU216HW,2013-06-11 18:51:00,
2013-06-11 11:56:00,68.4,56.2,29.98,WSW,248,5.4,6.7,65,0.00,,,0.00,WUHU216HW,2013-06-11 18:56:00,
2013-06-11 12:01:00,68.8,56.5,29.97,NNW,338,3.8,6.7,65,0.00,,,0.00,WUHU216HW,2013-06-11 19:01:00,
2013-06-11 12:06:00,69.3,56.6,29.97,West,270,6.9,6.9,64,0.00,,,0.00,WUHU216HW,2013-06-11 19:06:00,
2013-06-11 12:12:00,69.3,56.2,29.97,West,270,2.0,6.9,63,0.00,,,0.00,WUHU216HW,2013-06-11 19:12:00,
2013-06-11 12:17:00,69.1,56.0,29.97,SW,225,2.7,6.9,63,0.00,,,0.00,WUHU216HW,2013-06-11 19:17:00,
2013-06-11 12:22:00,69.7,56.5,29.97,WSW,248,5.6,5.6,63,0.00,,,0.00,WUHU216HW,2013-06-11 19:22:00,
2013-06-11 12:27:00,69.8,56.3,29.96,West,270,3.6,5.6,62,0.00,,,0.00,WUHU216HW,2013-06-11 19:27:00,
2013-06-11 12:32:00,69.8,56.3,29.96,SW,225,4.0,5.6,62,0.00,,,0.00,WUHU216HW,2013-06-11 19:32:00,
2013-06-11 12:37:00,70.2,56.6,29.96,WNW,293,2.0,5.1,62,0.00,,,0.00,WUHU216HW,2013-06-11 19:37:00,
2013-06-11 12:42:00,70.4,56.8,29.96,SW,225,4.9,4.9,62,0.00,,,0.00,WUHU216HW,2013-06-11 19:42:00,
2013-06-11 12:47:00,71.1,57.4,29.96,SW,225,4.9,4.9,62,0.00,,,0.00,WUHU216HW,2013-06-11 19:47:00,
2013-06-11 12:52:00,71.5,57.3,29.96,West,270,3.4,4.9,61,0.00,,,0.00,WUHU216HW,2013-06-11 19:52:00,
2013-06-11 12:57:00,71.8,57.3,29.96,West,270,4.7,5.4,60,0.00,,,0.00,WUHU216HW,2013-06-11 19:57:00,
2013-06-11 13:02:00,72.0,57.4,29.96,West,270,5.8,5.8,60,0.00,,,0.00,WUHU216HW,2013-06-11 20:02:00,
2013-06-11 13:07:00,72.2,57.5,29.95,SW,225,2.2,6.0,60,0.00,,,0.00,WUHU216HW,2013-06-11 20:07:00,
2013-06-11 13:12:00,72.4,57.7,29.95,WSW,248,5.8,6.0,60,0.00,,,0.00,WUHU216HW,2013-06-11 20:12:00,
2013-06-11 13:17:00,72.5,57.9,29.95,West,270,9.8,9.8,60,0.00,,,0.00,WUHU216HW,2013-06-11 20:17:00,
2013-06-11 13:22:00,72.9,58.2,29.95,NW,315,1.8,9.8,60,0.00,,,0.00,WUHU216HW,2013-06-11 20:22:00,
2013-06-11 13:27:00,72.7,57.1,29.95,West,270,3.4,5.8,58,0.00,,,0.00,WUHU216HW,2013-06-11 20:27:00,
2013-06-11 13:32:00,72.7,57.5,29.95,SW,225,4.9,5.8,59,0.00,,,0.00,WUHU216HW,2013-06-11 20:32:00,
2013-06-11 13:37:00,73.1,57.9,29.95,SW,225,6.9,6.9,59,0.00,,,0.00,WUHU216HW,2013-06-11 20:37:00,
2013-06-11 13:42:00,73.3,57.5,29.95,WNW,293,3.8,6.9,58,0.00,,,0.00,WUHU216HW,2013-06-11 20:42:00,
2013-06-11 13:47:00,73.4,57.7,29.95,NW,315,4.3,4.3,58,0.00,,,0.00,WUHU216HW,2013-06-11 20:47:00,
2013-06-11 13:52:00,73.4,57.7,29.95,West,270,9.8,9.8,58,0.00,,,0.00,WUHU216HW,2013-06-11 20:52:00,
2013-06-11 13:57:00,73.4,57.7,29.95,SW,225,7.2,9.8,58,0.00,,,0.00,WUHU216HW,2013-06-11 20:57:00,
2013-06-11 14:02:00,73.3,57.5,29.95,SW,225,6.0,9.8,58,0.00,,,0.00,WUHU216HW,2013-06-11 21:02:00,
2013-06-11 14:07:00,73.3,57.5,29.94,WSW,248,4.7,7.2,58,0.00,,,0.00,WUHU216HW,2013-06-11 21:07:00,
2013-06-11 14:12:00,73.4,57.7,29.94,West,270,5.6,6.0,58,0.00,,,0.00,WUHU216HW,2013-06-11 21:12:00,
2013-06-11 14:17:00,73.6,57.9,29.95,West,270,7.4,7.4,58,0.00,,,0.00,WUHU216HW,2013-06-11 21:17:00,
2013-06-11 14:22:00,73.8,57.5,29.94,WSW,248,4.7,7.4,57,0.00,,,0.00,WUHU216HW,2013-06-11 21:22:00,
2013-06-11 14:27:00,73.8,57.5,29.94,WSW,248,4.7,7.4,57,0.00,,,0.00,WUHU216HW,2013-06-11 21:27:00,
2013-06-11 14:32:00,73.8,57.5,29.94,West,270,4.3,4.7,57,0.00,,,0.00,WUHU216HW,2013-06-11 21:32:00,
2013-06-11 14:37:00,73.8,57.5,29.94,WSW,248,4.5,7.4,57,0.00,,,0.00,WUHU216HW,2013-06-11 21:37:00,
2013-06-11 14:42:00,74.0,57.7,29.94,West,270,5.4,7.4,57,0.00,,,0.00,WUHU216HW,2013-06-11 21:42:00,
2013-06-11 14:47:00,74.0,57.3,29.94,WSW,248,5.1,5.4,56,0.00,,,0.00,WUHU216HW,2013-06-11 21:47:00,
2013-06-11 14:52:00,73.8,57.1,29.93,West,270,6.5,6.5,56,0.00,,,0.00,WUHU216HW,2013-06-11 21:52:00,
2013-06-11 14:57:00,73.8,57.1,29.94,SW,225,8.3,8.3,56,0.00,,,0.00,WUHU216HW,2013-06-11 21:57:00,
2013-06-11 15:02:00,73.8,57.1,29.93,WNW,293,4.7,8.3,56,0.00,,,0.00,WUHU216HW,2013-06-11 22:02:00,
2013-06-11 15:07:00,74.2,57.4,29.93,WNW,293,4.5,6.9,56,0.00,,,0.00,WUHU216HW,2013-06-11 22:07:00,
2013-06-11 15:12:00,74.5,57.2,29.93,WSW,248,4.7,4.7,55,0.00,,,0.00,WUHU216HW,2013-06-11 22:12:00,
2013-06-11 15:17:00,74.5,56.7,29.93,NW,315,4.9,5.6,54,0.00,,,0.00,WUHU216HW,2013-06-11 22:17:00,
2013-06-11 15:22:00,74.5,56.7,29.93,North,0,4.0,5.8,54,0.00,,,0.00,WUHU216HW,2013-06-11 22:22:00,
2013-06-11 15:27:00,74.7,56.9,29.93,SW,225,2.2,8.5,54,0.00,,,0.00,WUHU216HW,2013-06-11 22:27:00,
2013-06-11 15:32:00,74.9,57.1,29.93,West,270,4.5,8.5,54,0.00,,,0.00,WUHU216HW,2013-06-11 22:32:00,
2013-06-11 15:37:00,75.2,57.4,29.93,West,270,4.9,4.9,54,0.00,,,0.00,WUHU216HW,2013-06-11 22:37:00,
2013-06-11 15:42:00,75.4,57.2,29.93,West,270,6.5,6.5,53,0.00,,,0.00,WUHU216HW,2013-06-11 22:42:00,
2013-06-11 15:47:00,75.4,57.2,29.93,NW,315,6.7,7.4,53,0.00,,,0.00,WUHU216HW,2013-06-11 22:47:00,
2013-06-11 15:52:00,75.6,57.2,29.93,West,270,5.6,7.4,53,0.00,,,0.00,WUHU216HW,2013-06-11 22:52:00,
2013-06-11 15:57:00,75.6,57.2,29.93,WSW,248,4.7,5.6,53,0.00,,,0.00,WUHU216HW,2013-06-11 22:57:00,
2013-06-11 16:02:00,75.6,57.2,29.93,West,270,2.7,7.4,53,0.00,,,0.00,WUHU216HW,2013-06-11 23:02:00,
2013-06-11 16:07:00,76.0,57.6,29.93,WSW,248,6.3,7.4,53,0.00,,,0.00,WUHU216HW,2013-06-11 23:07:00,
2013-06-11 16:12:00,76.0,57.1,29.92,WSW,248,6.3,6.3,52,0.00,,,0.00,WUHU216HW,2013-06-11 23:12:00,
2013-06-11 16:17:00,76.0,57.6,29.92,West,270,6.0,6.7,53,0.00,,,0.00,WUHU216HW,2013-06-11 23:17:00,
2013-06-11 16:22:00,75.6,56.8,29.92,NNW,338,5.6,6.7,52,0.00,,,0.00,WUHU216HW,2013-06-11 23:22:00,
2013-06-11 16:27:00,75.4,56.6,29.91,WNW,293,4.7,6.0,52,0.00,,,0.00,WUHU216HW,2013-06-11 23:27:00,
2013-06-11 16:32:00,75.1,56.8,29.92,WNW,293,3.4,7.4,53,0.00,,,0.00,WUHU216HW,2013-06-11 23:32:00,
2013-06-11 16:37:00,75.2,57.0,29.92,West,270,4.7,7.4,53,0.00,,,0.00,WUHU216HW,2013-06-11 23:37:00,
2013-06-11 16:42:00,75.2,57.0,29.92,WNW,293,9.4,9.4,53,0.00,,,0.00,WUHU216HW,2013-06-11 23:42:00,
2013-06-11 16:47:00,75.1,56.8,29.92,WNW,293,6.9,9.4,53,0.00,,,0.00,WUHU216HW,2013-06-11 23:47:00,
2013-06-11 16:52:00,74.9,57.1,29.92,West,270,9.8,9.8,54,0.00,,,0.00,WUHU216HW,2013-06-11 23:52:00,
2013-06-11 16:57:00,74.5,56.7,29.92,WNW,293,9.6,10.3,54,0.00,,,0.00,WUHU216HW,2013-06-11 23:57:00,
2013-06-11 17:02:00,74.5,56.7,29.91,West,270,5.4,10.3,54,0.00,,,0.00,WUHU216HW,2013-06-12 00:02:00,
2013-06-11 17:07:00,74.5,56.7,29.91,WSW,248,6.7,6.7,54,0.00,,,0.00,WUHU216HW,2013-06-12 00:07:00,
2013-06-11 17:12:00,74.2,56.3,29.91,SW,225,9.2,9.2,54,0.00,,,0.00,WUHU216HW,2013-06-12 00:12:00,
2013-06-11 17:17:00,74.3,56.5,29.91,WNW,293,7.4,9.2,54,0.00,,,0.00,WUHU216HW,2013-06-12 00:17:00,
2013-06-11 17:22:00,74.2,56.3,29.91,WNW,293,7.6,9.2,54,0.00,,,0.00,WUHU216HW,2013-06-12 00:22:00,
2013-06-11 17:27:00,74.0,56.2,29.90,West,270,7.2,7.6,54,0.00,,,0.00,WUHU216HW,2013-06-12 00:27:00,
2013-06-11 17:32:00,73.6,56.3,29.90,SW,225,5.8,8.3,55,0.00,,,0.00,WUHU216HW,2013-06-12 00:32:00,
2013-06-11 17:37:00,73.4,56.2,29.90,West,270,5.6,8.3,55,0.00,,,0.00,WUHU216HW,2013-06-12 00:37:00,
2013-06-11 17:42:00,72.5,55.9,29.91,WSW,248,7.2,7.8,56,0.00,,,0.00,WUHU216HW,2013-06-12 00:42:00,
2013-06-11 17:47:00,72.2,55.5,29.91,West,270,5.6,7.8,56,0.00,,,0.00,WUHU216HW,2013-06-12 00:47:00,
2013-06-11 17:52:00,71.6,55.5,29.91,WSW,248,7.4,7.6,57,0.00,,,0.00,WUHU216HW,2013-06-12 00:52:00,
2013-06-11 17:57:00,70.9,55.5,29.91,WSW,248,6.3,8.5,58,0.00,,,0.00,WUHU216HW,2013-06-12 00:57:00,
2013-06-11 18:02:00,70.6,55.6,29.90,NW,315,8.5,9.2,59,0.00,,,0.00,WUHU216HW,2013-06-12 01:02:00,
2013-06-11 18:07:00,70.2,55.3,29.91,NW,315,8.1,9.2,59,0.00,,,0.00,WUHU216HW,2013-06-12 01:07:00,
2013-06-11 18:12:00,70.0,55.1,29.91,West,270,8.3,8.3,59,0.00,,,0.00,WUHU216HW,2013-06-12 01:12:00,
2013-06-11 18:17:00,70.0,55.1,29.91,WSW,248,4.7,8.3,59,0.00,,,0.00,WUHU216HW,2013-06-12 01:17:00,
2013-06-11 18:22:00,69.7,54.7,29.91,West,270,9.4,9.4,59,0.00,,,0.00,WUHU216HW,2013-06-12 01:22:00,
2013-06-11 18:27:00,69.5,55.1,29.91,SW,225,4.3,9.4,60,0.00,,,0.00,WUHU216HW,2013-06-12 01:27:00,
2013-06-11 18:32:00,69.1,54.7,29.90,WNW,293,3.4,9.4,60,0.00,,,0.00,WUHU216HW,2013-06-12 01:32:00,
2013-06-11 18:37:00,68.8,54.8,29.90,West,270,4.5,8.9,61,0.00,,,0.00,WUHU216HW,2013-06-12 01:37:00,
2013-06-11 18:42:00,68.8,54.8,29.90,WSW,248,8.7,8.7,61,0.00,,,0.00,WUHU216HW,2013-06-12 01:42:00,
2013-06-11 18:47:00,68.9,55.0,29.90,NW,315,4.0,8.7,61,0.00,,,0.00,WUHU216HW,2013-06-12 01:47:00,
2013-06-11 18:52:00,68.9,55.0,29.91,WNW,293,6.0,8.7,61,0.00,,,0.00,WUHU216HW,2013-06-12 01:52:00,
2013-06-11 18:57:00,68.8,54.8,29.91,WNW,293,4.0,6.0,61,0.00,,,0.00,WUHU216HW,2013-06-12 01:57:00,
2013-06-11 19:02:00,68.9,55.0,29.91,NW,315,4.0,6.0,61,0.00,,,0.00,WUHU216HW,2013-06-12 02:02:00,
2013-06-11 19:07:00,69.1,55.2,29.91,NW,315,4.9,4.9,61,0.00,,,0.00,WUHU216HW,2013-06-12 02:07:00,
2013-06-11 19:12:00,68.8,54.4,29.91,WSW,248,3.1,4.9,60,0.00,,,0.00,WUHU216HW,2013-06-12 02:12:00,
2013-06-11 19:17:00,68.6,54.6,29.91,WNW,293,6.5,6.5,61,0.00,,,0.00,WUHU216HW,2013-06-12 02:17:00,
2013-06-11 19:22:00,68.4,54.5,29.91,West,270,5.4,6.5,61,0.00,,,0.00,WUHU216HW,2013-06-12 02:22:00,
2013-06-11 19:27:00,68.2,54.3,29.91,SW,225,6.3,6.5,61,0.00,,,0.00,WUHU216HW,2013-06-12 02:27:00,
2013-06-11 19:32:00,68.6,54.6,29.91,WSW,248,1.1,6.3,61,0.00,,,0.00,WUHU216HW,2013-06-12 02:32:00,
2013-06-11 19:37:00,68.4,54.5,29.91,SW,225,3.4,3.4,61,0.00,,,0.00,WUHU216HW,2013-06-12 02:37:00,
2013-06-11 19:42:00,68.4,54.5,29.91,WNW,293,3.4,5.6,61,0.00,,,0.00,WUHU216HW,2013-06-12 02:42:00,
2013-06-11 19:47:00,68.2,54.3,29.91,West,270,5.4,5.6,61,0.00,,,0.00,WUHU216HW,2013-06-12 02:47:00,
2013-06-11 19:52:00,68.2,54.3,29.91,SW,225,6.3,6.9,61,0.00,,,0.00,WUHU216HW,2013-06-12 02:52:00,
2013-06-11 19:57:00,68.4,54.5,29.91,West,270,2.2,6.9,61,0.00,,,0.00,WUHU216HW,2013-06-12 02:57:00,
2013-06-11 20:02:00,68.4,54.9,29.91,West,270,2.9,6.3,62,0.00,,,0.00,WUHU216HW,2013-06-12 03:02:00,
2013-06-11 20:07:00,68.2,54.7,29.91,SW,225,4.0,4.7,62,0.00,,,0.00,WUHU216HW,2013-06-12 03:07:00,
2013-06-11 20:12:00,68.0,54.6,29.91,SW,225,3.4,4.0,62,0.00,,,0.00,WUHU216HW,2013-06-12 03:12:00,
2013-06-11 20:17:00,67.7,54.2,29.91,WSW,248,3.4,4.0,62,0.00,,,0.00,WUHU216HW,2013-06-12 03:17:00,
2013-06-11 20:22:00,67.5,54.0,29.91,WSW,248,1.6,4.0,62,0.00,,,0.00,WUHU216HW,2013-06-12 03:22:00,
2013-06-11 20:27:00,67.3,54.3,29.92,South,180,3.4,3.8,63,0.00,,,0.00,WUHU216HW,2013-06-12 03:27:00,
2013-06-11 20:32:00,67.3,54.3,29.91,SW,225,4.7,4.9,63,0.00,,,0.00,WUHU216HW,2013-06-12 03:32:00,
2013-06-11 20:37:00,67.3,54.3,29.92,West,270,1.8,4.9,63,0.00,,,0.00,WUHU216HW,2013-06-12 03:37:00,
2013-06-11 20:42:00,67.3,54.3,29.91,WSW,248,4.0,4.7,63,0.00,,,0.00,WUHU216HW,2013-06-12 03:42:00,
2013-06-11 20:47:00,67.1,54.1,29.92,WSW,248,1.1,4.0,63,0.00,,,0.00,WUHU216HW,2013-06-12 03:47:00,
2013-06-11 20:52:00,66.8,53.7,29.92,SW,225,1.8,3.4,63,0.00,,,0.00,WUHU216HW,2013-06-12 03:52:00,
2013-06-11 20:57:00,66.6,53.7,29.92,WSW,248,1.8,2.7,63,0.00,,,0.00,WUHU216HW,2013-06-12 03:57:00,
2013-06-11 21:02:00,66.2,53.3,29.92,WNW,293,2.0,2.5,63,0.00,,,0.00,WUHU216HW,2013-06-12 04:02:00,
2013-06-11 21:07:00,66.2,53.3,29.92,WNW,293,1.1,2.0,63,0.00,,,0.00,WUHU216HW,2013-06-12 04:07:00,
2013-06-11 21:12:00,65.9,53.4,29.92,West,270,2.2,2.2,64,0.00,,,0.00,WUHU216HW,2013-06-12 04:12:00,
2013-06-11 21:17:00,65.3,52.8,29.92,NNW,338,2.5,2.7,64,0.00,,,0.00,WUHU216HW,2013-06-12 04:17:00,
2013-06-11 21:22:00,65.0,52.5,29.92,NW,315,2.5,2.7,64,0.00,,,0.00,WUHU216HW,2013-06-12 04:22:00,
2013-06-11 21:27:00,64.8,52.8,29.92,West,270,0.9,2.5,65,0.00,,,0.00,WUHU216HW,2013-06-12 04:27:00,
2013-06-11 21:32:00,64.4,52.4,29.92,NNW,338,1.8,2.5,65,0.00,,,0.00,WUHU216HW,2013-06-12 04:32:00,
2013-06-11 21:37:00,64.3,52.2,29.92,WNW,293,2.5,2.5,65,0.00,,,0.00,WUHU216HW,2013-06-12 04:37:00,
2013-06-11 21:42:00,64.3,52.2,29.92,North,0,1.3,2.5,65,0.00,,,0.00,WUHU216HW,2013-06-12 04:42:00,
2013-06-11 21:47:00,64.1,52.5,29.93,North,0,0.0,2.5,66,0.00,,,0.00,WUHU216HW,2013-06-12 04:47:00,
2013-06-11 21:52:00,64.1,52.5,29.93,NW,315,0.7,1.8,66,0.00,,,0.00,WUHU216HW,2013-06-12 04:52:00,
2013-06-11 21:57:00,64.1,52.5,29.93,NNW,338,0.0,0.9,66,0.00,,,0.00,WUHU216HW,2013-06-12 04:57:00,
2013-06-11 22:02:00,64.1,52.5,29.93,NNW,338,0.4,0.7,66,0.00,,,0.00,WUHU216HW,2013-06-12 05:02:00,
2013-06-11 22:07:00,64.1,52.5,29.93,NNE,23,1.1,1.1,66,0.00,,,0.00,WUHU216HW,2013-06-12 05:07:00,
2013-06-11 22:12:00,63.9,52.3,29.93,NNE,23,0.9,2.2,66,0.00,,,0.00,WUHU216HW,2013-06-12 05:12:00,
2013-06-11 22:17:00,63.7,52.1,29.93,NE,45,0.4,2.2,66,0.00,,,0.00,WUHU216HW,2013-06-12 05:17:00,
2013-06-11 22:22:00,63.7,52.1,29.93,NE,45,0.0,1.1,66,0.00,,,0.00,WUHU216HW,2013-06-12 05:22:00,
2013-06-11 22:27:00,63.5,51.9,29.92,ENE,68,0.4,1.6,66,0.00,,,0.00,WUHU216HW,2013-06-12 05:27:00,
2013-06-11 22:32:00,63.5,52.4,29.92,ESE,113,0.4,1.6,67,0.00,,,0.00,WUHU216HW,2013-06-12 05:32:00,
2013-06-11 22:37:00,63.5,52.4,29.92,North,0,0.7,1.3,67,0.00,,,0.00,WUHU216HW,2013-06-12 05:37:00,
2013-06-11 22:42:00,63.4,51.8,29.93,WNW,293,1.1,1.3,66,0.00,,,0.00,WUHU216HW,2013-06-12 05:42:00,
2013-06-11 22:47:00,63.4,51.8,29.92,NNW,338,0.0,1.1,66,0.00,,,0.00,WUHU216HW,2013-06-12 05:47:00,
2013-06-11 22:52:00,63.2,51.6,29.92,NNW,338,0.0,0.7,66,0.00,,,0.00,WUHU216HW,2013-06-12 05:52:00,
2013-06-11 22:57:00,63.2,51.6,29.92,NNW,338,0.0,0.2,66,0.00,,,0.00,WUHU216HW,2013-06-12 05:57:00,
2013-06-11 23:02:00,63.0,51.4,29.92,West,270,0.9,1.8,66,0.00,,,0.00,WUHU216HW,2013-06-12 06:02:00,
2013-06-11 23:07:00,63.0,51.0,29.92,WNW,293,0.0,1.8,65,0.00,,,0.00,WUHU216HW,2013-06-12 06:07:00,
2013-06-11 23:12:00,62.8,50.9,29.92,WNW,293,0.0,1.1,65,0.00,,,0.00,WUHU216HW,2013-06-12 06:12:00,
2013-06-11 23:17:00,62.8,50.9,29.92,NNW,338,0.0,0.0,65,0.00,,,0.00,WUHU216HW,2013-06-12 06:17:00,
2013-06-11 23:22:00,62.6,50.7,29.92,North,0,0.0,0.2,65,0.00,,,0.00,WUHU216HW,2013-06-12 06:22:00,
2013-06-11 23:27:00,62.5,50.5,29.92,North,0,0.0,0.2,65,0.00,,,0.00,WUHU216HW,2013-06-12 06:27:00,
2013-06-11 23:32:00,62.5,50.5,29.92,NNW,338,0.2,0.2,65,0.00,,,0.00,WUHU216HW,2013-06-12 06:32:00,
2013-06-11 23:37:00,62.3,50.3,29.92,WNW,293,0.4,0.7,65,0.00,,,0.00,WUHU216HW,2013-06-12 06:37:00,
2013-06-11 23:42:00,62.1,50.2,29.92,WNW,293,0.0,0.7,65,0.00,,,0.00,WUHU216HW,2013-06-12 06:42:00,
2013-06-11 23:47:00,61.9,50.1,29.92,NE,45,0.0,0.4,65,0.00,,,0.00,WUHU216HW,2013-06-12 06:47:00,
2013-06-11 23:52:00,61.9,50.1,29.91,NE,45,0.0,0.0,65,0.00,,,0.00,WUHU216HW,2013-06-12 06:52:00,
2013-06-11 23:57:00,61.7,50.3,29.92,NNE,23,0.0,0.0,66,0.00,,,0.00,WUHU216HW,2013-06-12 06:57:00,